Location: Newark
(44.3299°N, 23.7597°E)
Time: 08:52:53
(UTC+00:00)

Envisat - Pass Details

Date: 05 February 2022
Orbit: 764 x 765 km, 98.2° (Epoch: 22 May)

Event Time Altitude Azimuth Distance (km) Brightness Sun altitude
Rises 04:44:45 0° 359° (N) 3,241 6.1 -10.0°
Reaches altitude 10° 04:47:41 10° 341° (NNW) 2,311 5.2 -9.5°
Maximum altitude 04:51:06 19° 299° (WNW) 1,789 4.3 -8.9°
Drops below altitude 10° 04:54:31 10° 256° (WSW) 2,302 4.9 -8.3°
Sets 04:57:26 0° 239° (WSW) 3,224 5.8 -7.8°
